Temp
13 16 16 14 14 13 12 11 11 12 11 12 12 12 12 11 12 12 12 11 10 12 13 12 12 12 14 15 15 14 14 14 14 15 14 14 14 14 14 14 14 15 14 12 12 13 13 14 14 14 14 15 14 14 14 13 13 13 13 13 13 12 12 11 10 10 9 8 7 6 6 7 7 7 6 6 6 6 6 6 6 6 5 5 5 4
14 16 15 13 13 11 10 10 10 11 11 11 12 12 13 11 12 13 12 10 10 11 12 12 12 14 16 16 15 14 14 14 14 14 14 14 14 14 14 14 14 14 13 12 12 12 12 12 13 14 14 14 13 13 14 13 13 13 12 12 12 12 11 11 11 10 9 9 9 8 8 9 8 7 7 6 6 6 6 5 5 5 5 5 5 4
16 15 14 12 11 10 10 10 11 11 11 11 11 12 13 12 12 13 12 11 10 11 13 12 12 15 15 14 15 15 15 15 13 13 13 13 14 14 14 14 13 14 14 13 13 11 11 11 11 12 13 13 13 13 13 13 13 13 13 12 11 11 11 10 10 10 10 10 10 9 9 8 8 7 6 6 6 5 5 5 4 5 5 5 5 4
16 16 13 10 10 12 13 12 11 12 12 12 12 13 13 12 12 13 13 11 9 9 11 12 12 13 14 14 16 15 14 14 14 13 13 13 13 13 13 13 12 13 14 13 12 10 9 10 10 10 11 11 12 12 12 12 12 12 12 12 11 10 10 10 10 9 9 9 9 8 8 7 6 6 5 5 4 4 4 4 4 4 5 5 4 4
16 14 11 10 12 13 14 13 11 12 14 12 12 13 13 12 11 11 11 10 10 10 9 11 14 15 14 15 17 16 14 15 14 14 15 14 13 13 13 13 13 13 13 12 12 11 9 8 9 9 9 10 10 10 9 10 10 10 10 10 11 10 10 9 9 9 9 8 8 8 7 6 6 5 5 4 4 4 4 4 4 5 5 4 4 4
15 12 11 13 14 13 14 13 11 12 13 14 13 13 12 11 10 9 9 10 13 14 11 11 15 17 16 15 16 16 15 16 15 15 16 16 14 14 14 14 13 13 12 12 11 11 9 8 8 9 9 9 9 8 8 8 9 9 9 9 10 10 10 9 8 8 8 8 8 7 6 6 5 4 4 4 5 5 5 4 5 5 4 4 4 3
15 12 11 13 13 13 14 13 11 11 12 15 14 11 11 10 9 9 9 11 15 15 11 11 14 15 15 16 16 14 14 16 16 16 16 16 15 15 14 14 13 13 12 12 12 11 9 7 7 8 9 8 8 8 8 8 8 8 8 9 9 9 9 9 8 8 7 7 7 7 6 6 5 5 5 6 6 5 5 5 4 4 4 4 3 3
14 14 13 13 13 14 14 13 12 11 12 16 14 10 10 10 10 9 9 11 12 12 12 11 12 13 14 16 14 12 14 16 16 17 17 16 16 15 14 13 13 13 12 11 12 12 9 7 7 7 8 8 8 8 8 8 8 8 8 8 8 8 8 8 8 7 7 6 7 7 6 6 6 5 5 6 5 5 4 4 4 4 4 3 3 3
13 15 14 13 14 14 14 13 12 10 13 16 13 10 9 9 9 8 9 11 9 11 15 13 12 13 14 15 14 12 15 16 16 17 16 16 16 15 14 13 13 12 11 9 10 10 8 6 7 7 7 7 7 7 7 7 7 7 7 7 7 7 7 7 7 7 6 6 6 6 6 5 5 5 5 5 4 4 4 3 3 3 3 3 3 3
13 13 11 12 14 14 14 13 11 11 13 13 11 10 9 7 8 8 9 11 10 12 16 13 12 13 13 14 14 14 16 16 15 15 14 14 13 12 13 12 11 9 8 7 7 6 5 5 6 6 6 6 6 6 6 6 7 7 7 7 7 7 7 7 7 6 6 6 5 5 5 5 5 5 5 4 3 3 3 3 3 3 3 3 3 3
12 10 9 11 13 12 12 11 9 10 12 12 11 12 12 9 8 9 8 10 12 14 15 12 12 12 12 14 15 15 15 13 12 12 11 11 10 10 9 8 7 6 5 5 5 5 5 5 6 5 5 6 5 6 6 6 6 6 6 6 7 7 7 7 6 6 6 6 6 5 5 5 5 5 4 3 3 3 2 2 2 2 2 2 2 2
12 12 12 11 11 10 11 12 10 8 9 11 12 13 15 13 11 12 11 12 14 15 14 11 11 11 11 14 16 15 13 10 9 9 8 8 7 6 5 5 5 5 5 5 5 5 4 4 5 5 5 5 5 5 5 5 5 5 6 6 6 6 6 6 6 6 6 6 6 5 5 5 4 4 4 3 3 3 2 2 2 2 2 2 2 2
15 15 13 11 10 9 12 14 13 11 11 12 13 13 14 14 12 13 13 13 13 14 13 11 11 12 12 14 15 14 11 8 7 6 6 5 5 4 4 4 5 5 5 4 4 4 4 4 4 4 4 4 4 5 5 5 5 5 5 5 5 5 6 6 6 6 6 5 5 5 5 5 4 4 4 3 3 3 2 2 2 2 1 1 1 1
16 16 14 14 12 10 12 14 13 13 13 12 12 12 13 13 11 11 12 11 12 12 12 11 11 11 13 13 12 9 8 7 6 5 5 5 4 4 4 4 5 5 4 4 4 4 4 4 4 4 4 4 4 4 4 4 4 4 4 4 4 4 5 5 5 5 5 5 5 5 5 4 4 4 4 3 3 3 3 2 2 2 1 1 1 1
15 16 15 15 14 12 13 13 12 12 12 11 10 11 13 13 11 11 12 12 12 11 10 10 11 12 14 12 9 7 7 6 5 5 5 5 5 4 5 4 4 4 4 4 4 4 4 3 4 4 4 4 4 4 4 4 4 4 4 4 4 4 4 4 4 4 4 4 4 4 4 4 4 4 3 3 3 3 3 2 2 2 1 1 1 1
13 15 15 13 11 12 13 11 10 11 12 10 9 11 13 12 12 11 11 11 10 9 9 10 12 12 13 11 6 6 6 5 5 5 5 5 5 5 5 4 4 4 4 4 4 4 4 4 4 4 4 4 4 4 4 4 4 4 3 3 3 3 3 3 3 3 3 3 3 3 3 4 3 3 3 3 3 3 3 2 2 2 2 1 1 1
13 15 15 13 11 11 11 10 10 11 13 12 10 13 12 9 10 11 10 9 8 9 9 10 11 11 11 10 6 5 5 5 5 5 4 5 4 4 4 4 4 4 4 4 4 4 4 4 4 4 4 4 4 4 4 4 4 4 3 3 3 3 3 3 3 3 3 3 3 3 3 3 3 3 3 3 3 3 3 3 2 2 2 1 1 1
11 13 14 12 14 13 7 8 10 9 10 13 13 12 10 8 10 10 9 9 9 9 9 10 11 10 10 10 6 4 4 4 4 4 4 4 4 4 4 4 4 4 4 4 4 4 4 4 4 4 3 3 3 3 3 3 3 3 3 3 3 3 3 3 3 3 3 3 3 3 3 3 3 3 3 3 3 3 2 2 3 2 2 1 1 1
8 12 13 11 13 13 8 9 12 9 8 11 12 11 10 11 11 9 9 10 9 8 9 10 11 9 8 6 4 3 4 3 4 4 4 4 4 4 4 4 4 4 4 4 4 4 4 4 4 3 3 3 3 3 3 3 3 3 3 3 3 3 3 3 3 3 3 3 2 2 2 2 3 3 3 3 3 2 2 2 2 2 2 2 1 1
8 12 14 11 11 12 12 13 14 13 10 9 10 10 11 11 10 10 9 9 9 8 8 9 10 9 5 4 3 3 3 3 3 3 4 4 4 4 4 4 3 3 3 4 4 4 4 4 3 3 3 3 3 3 3 3 3 3 3 3 3 3 3 3 3 2 2 2 2 2 2 2 2 2 2 2 2 2 2 2 2 2 2 2 1 1
9 11 12 13 12 12 14 14 13 13 12 11 11 11 11 10 10 9 8 8 8 8 8 7 8 8 4 3 3 3 3 3 3 3 4 4 4 4 3 3 3 3 3 4 4 4 4 3 3 3 3 3 3 3 3 3 3 3 3 3 2 2 2 2 2 2 2 2 2 2 2 2 2 2 2 2 2 2 2 2 2 2 2 1 1 1
9 10 10 11 12 13 15 13 11 12 11 11 12 11 11 10 10 9 8 8 8 8 8 7 7 7 4 3 4 3 3 3 3 3 3 3 4 3 3 3 3 3 3 4 4 3 3 3 3 3 3 3 3 2 3 3 2 2 2 2 2 2 2 2 2 2 2 2 2 2 2 2 2 2 1 2 2 2 2 2 2 2 1 1 1 1
8 8 8 10 11 13 14 10 8 9 9 10 10 10 9 9 9 9 8 8 7 7 7 6 7 6 3 3 4 3 3 3 3 3 3 3 3 3 3 3 3 3 3 4 4 3 3 2 2 3 2 2 2 2 2 2 2 2 2 2 2 2 2 2 1 1 1 1 1 1 1 1 1 1 1 1 1 1 2 2 2 2 1 1 1 0
7 8 9 11 11 12 12 10 8 8 9 11 10 8 8 8 8 8 7 6 6 6 6 5 6 6 3 3 4 4 3 3 3 3 2 2 3 3 3 3 3 3 3 3 3 3 2 2 2 2 2 2 2 2 2 2 2 2 2 1 1 1 1 1 1 1 1 1 1 1 1 1 1 1 1 1 1 1 1 2 2 2 1 1 1 0
8 10 10 11 11 11 12 11 10 10 10 11 10 7 6 6 5 5 5 4 5 6 6 4 5 6 5 4 4 3 3 3 3 3 3 3 3 3 3 3 3 3 3 3 3 2 2 2 2 2 2 1 1 1 1 1 1 1 1 1 1 1 1 1 1 1 1 1 1 1 1 1 1 1 1 1 1 1 1 1 1 2 1 1 0 -0
8 9 10 11 11 10 10 10 11 11 10 10 9 6 4 4 3 4 4 3 4 5 4 3 4 5 6 5 4 3 2 2 2 3 3 3 3 3 2 3 2 2 2 2 2 1 1 1 1 1 1 1 1 1 1 1 1 1 1 1 1 1 1 1 1 1 0 0 0 0 0 1 1 1 1 1 1 1 1 1 1 1 1 1 0 -0
7 8 9 11 11 11 11 11 11 10 9 9 7 4 3 3 2 3 2 2 3 3 3 4 5 4 4 4 3 2 2 2 2 2 2 2 2 3 2 2 2 2 2 2 1 1 1 0 0 0 0 0 0 0 0 0 0 0 0 0 0 0 0 0 0 0 0 0 0 0 0 0 0 0 0 1 1 1 1 1 1 1 1 1 0 -0
8 9 8 9 10 11 11 10 10 9 7 6 4 2 2 2 2 2 1 1 3 2 2 4 4 3 3 3 2 2 2 2 2 2 2 2 2 2 2 2 1 1 1 1 0 0 0 0 0 -0 -0 0 0 0 0 0 0 0 0 0 0 0 0 0 0 0 0 -0 -0 -0 -0 -0 0 0 0 0 0 0 0 0 1 0 0 1 0 -0
8 9 7 6 8 9 9 8 8 7 5 4 2 2 2 2 2 2 1 2 2 2 2 3 4 3 3 2 2 2 2 2 2 2 2 2 2 2 1 1 0 1 0 0 0 0 0 0 0 -0 -0 -0 -0 0 -0 -0 0 -0 -0 -0 -0 -0 -0 -0 -0 -0 -0 -0 -0 -0 -0 -0 -0 -0 -0 0 0 0 0 0 0 0 0 0 -0 -0
7 9 6 4 6 7 7 7 7 7 5 2 1 2 2 2 2 2 1 2 2 2 2 3 3 3 3 2 2 2 2 2 2 2 2 1 1 1 0 0 0 0 0 0 0 0 0 0 0 -0 -0 -0 -0 -0 -0 -0 -0 -0 -0 -0 -0 -0 -0 -0 -0 -0 -1 -1 -1 -0 -0 -0 -0 -0 -0 -0 -0 -0 -0 -0 -0 -0 -0 -0 -0 -1
7 9 6 4 6 8 9 9 8 7 5 2 1 2 2 2 2 2 2 2 2 2 2 3 2 2 2 2 2 2 2 2 1 1 1 1 1 0 -0 0 0 0 0 -0 -0 0 0 0 0 -0 -0 -0 -0 -0 -0 -0 -0 -0 -0 -0 -0 -0 -0 -0 -1 -1 -1 -1 -1 -1 -1 -1 -1 -1 -0 -0 -0 -0 -1 -0 -0 -1 -1 -1 -1 -1
7 8 6 5 7 8 9 9 8 6 4 1 0 1 1 2 2 1 2 2 1 1 2 2 1 1 2 2 2 1 1 1 0 0 0 0 0 -0 -0 -0 -0 -0 -0 -0 -0 -0 0 0 0 -0 -0 -0 -0 -1 -1 -1 -1 -1 -1 -1 -1 -1 -1 -1 -1 -1 -1 -1 -1 -1 -1 -1 -1 -1 -1 -1 -1 -1 -1 -1 -1 -1 -1 -1 -1 -1
5 6 7 6 6 8 9 8 7 6 6 4 1 1 1 1 1 1 2 2 2 2 1 1 0 1 1 1 1 0 0 -0 -0 -0 0 0 -0 -0 -0 -0 -0 -0 -0 -0 -0 -0 0 0 -0 -0 -0 -0 -1 -1 -1 -1 -1 -1 -1 -1 -1 -1 -1 -1 -1 -1 -1 -1 -1 -1 -1 -1 -1 -1 -1 -1 -1 -1 -1 -1 -1 -1 -1 -1 -1 -1
3 5 5 4 6 8 8 7 7 7 7 5 2 1 2 1 1 1 1 1 2 3 2 1 1 1 1 0 0 -0 -0 -0 -0 0 0 -0 -0 -0 -0 -0 -0 -0 -1 -0 -0 -0 -0 -0 -0 -0 -0 -1 -1 -1 -1 -1 -1 -1 -1 -1 -1 -1 -1 -1 -1 -1 -1 -1 -1 -1 -1 -1 -1 -1 -1 -1 -1 -1 -2 -1 -1 -1 -1 -1 -1 -1
5 5 4 3 5 7 7 5 6 6 5 3 2 2 2 2 2 1 1 2 3 3 2 1 1 1 0 0 0 -0 -0 -0 -0 -0 -0 0 -0 -0 -0 -1 -1 -1 -1 -0 -0 -0 -0 -1 -0 -0 -1 -1 -2 -2 -1 -1 -1 -1 -1 -1 -1 -1 -1 -1 -1 -1 -2 -2 -2 -2 -1 -1 -1 -1 -1 -2 -2 -2 -2 -2 -2 -1 -1 -1 -1 -1
5 5 4 4 4 6 6 5 4 4 3 1 2 3 2 2 2 1 1 2 3 2 1 0 0 0 0 -0 -0 -0 -0 -0 -1 -0 0 0 0 -0 -1 -1 -1 -1 -1 -0 -1 -0 -1 -1 -1 -1 -2 -2 -2 -2 -1 -1 -1 -1 -1 -1 -2 -2 -2 -2 -2 -2 -2 -2 -2 -2 -2 -1 -1 -1 -2 -2 -2 -2 -2 -2 -2 -2 -1 -1 -1 -1
4 4 5 5 4 4 5 4 4 5 3 1 1 2 2 1 2 1 -0 1 2 1 0 -0 -0 -0 -1 -1 -1 -1 -1 -1 -1 -1 0 0 -0 -0 -1 -1 -1 -0 -0 -0 -0 -0 -1 -1 -2 -2 -2 -2 -2 -1 -1 -1 -1 -2 -2 -2 -2 -2 -2 -2 -2 -2 -2 -2 -2 -2 -2 -2 -2 -2 -2 -2 -2 -2 -2 -2 -2 -2 -2 -2 -1 -2
3 4 4 5 4 4 4 3 3 3 3 2 1 2 2 2 2 2 0 0 1 1 0 -0 -1 -1 -1 -1 -1 -1 -1 -2 -2 -1 -0 -0 -0 -1 -1 -0 -0 -0 -0 -0 -0 -1 -2 -2 -2 -2 -2 -2 -2 -2 -2 -2 -2 -2 -2 -2 -2 -2 -2 -2 -2 -2 -2 -2 -2 -2 -2 -2 -2 -2 -2 -2 -2 -2 -2 -2 -2 -2 -2 -2 -2 -2
3 3 3 4 4 3 3 2 2 3 3 2 1 2 3 2 2 2 -1 -1 1 1 -0 -0 -1 -1 -1 -1 -2 -1 -2 -3 -3 -2 -1 -1 -1 -1 -1 -1 -0 -0 -0 -1 -1 -2 -2 -2 -2 -2 -2 -2 -2 -2 -2 -2 -2 -2 -2 -2 -2 -2 -2 -2 -2 -2 -2 -2 -2 -2 -2 -2 -2 -2 -2 -2 -2 -2 -2 -2 -2 -2 -2 -2 -2 -2
4 3 3 3 2 2 2 2 2 3 3 1 2 2 2 2 2 -0 -3 -2 -0 0 -0 -1 -1 -1 -1 -2 -2 -2 -3 -3 -3 -2 -1 -1 -1 -1 -1 -1 -1 -1 -1 -1 -2 -2 -2 -2 -2 -2 -2 -2 -2 -2 -2 -2 -3 -3 -2 -3 -2 -2 -2 -2 -2 -2 -2 -2 -2 -2 -2 -2 -2 -2 -2 -2 -2 -2 -2 -2 -2 -2 -2 -2 -2 -2
3 1 1 2 1 2 2 1 2 3 2 2 2 2 2 2 0 -2 -4 -2 -0 -0 -1 -1 -1 -2 -1 -2 -2 -2 -3 -2 -2 -2 -1 -1 -2 -1 -1 -1 -1 -1 -2 -2 -2 -2 -2 -2 -3 -2 -2 -3 -2 -3 -3 -3 -3 -3 -3 -3 -3 -3 -3 -2 -2 -2 -2 -2 -3 -2 -2 -2 -2 -2 -2 -2 -2 -2 -2 -2 -2 -2 -2 -2 -2 -2
1 0 0 1 1 1 2 1 1 2 3 3 2 3 2 -0 -2 -3 -1 0 -0 -1 -1 -1 -1 -1 -1 -2 -2 -2 -2 -2 -2 -2 -2 -2 -2 -2 -1 -1 -2 -2 -2 -2 -2 -2 -3 -3 -3 -3 -3 -3 -3 -3 -3 -3 -3 -3 -3 -3 -3 -3 -3 -3 -2 -3 -3 -3 -3 -3 -2 -2 -2 -2 -2 -2 -2 -2 -2 -2 -2 -2 -2 -2 -3 -3
1 0 0 1 1 1 1 1 -0 1 3 3 2 1 1 -1 -2 -1 0 -0 -1 -1 -1 -1 -1 -2 -2 -2 -2 -2 -2 -2 -2 -2 -2 -2 -2 -2 -2 -2 -2 -3 -3 -3 -3 -3 -3 -3 -3 -3 -3 -3 -3 -3 -3 -3 -3 -3 -3 -3 -3 -3 -3 -3 -3 -3 -3 -3 -3 -3 -3 -2 -2 -2 -2 -2 -2 -2 -2 -2 -2 -2 -3 -4 -4 -4
1 0 -0 0 0 -0 -1 -0 0 1 3 3 1 -0 -0 -0 0 0 -1 -1 -1 -1 -2 -2 -2 -2 -2 -2 -3 -3 -2 -3 -2 -2 -2 -2 -2 -2 -2 -2 -3 -3 -3 -3 -3 -3 -3 -3 -3 -3 -3 -3 -3 -3 -3 -3 -3 -3 -3 -3 -3 -3 -3 -3 -3 -3 -3 -3 -3 -3 -3 -2 -2 -2 -2 -2 -2 -2 -2 -2 -2 -3 -4 -5 -6 -6
1 1 0 -0 0 0 -1 -0 1 2 2 2 1 0 -0 0 0 -0 -1 -2 -2 -2 -2 -2 -2 -2 -2 -2 -3 -3 -3 -3 -3 -3 -3 -3 -3 -3 -3 -3 -3 -3 -3 -3 -3 -3 -3 -3 -3 -3 -3 -3 -3 -3 -3 -3 -3 -3 -3 -3 -3 -3 -3 -3 -3 -3 -3 -3 -3 -3 -2 -2 -2 -2 -2 -2 -2 -2 -2 -2 -4 -5 -5 -6 -7 -7
2 2 1 0 1 1 1 2 2 1 1 1 0 0 0 -0 -0 -1 -1 -2 -2 -2 -2 -2 -3 -2 -2 -3 -3 -3 -3 -3 -3 -3 -3 -3 -3 -3 -3 -3 -3 -3 -3 -3 -3 -3 -4 -4 -4 -4 -4 -4 -4 -4 -4 -4 -3 -3 -3 -3 -3 -3 -3 -3 -3 -3 -3 -3 -3 -3 -3 -3 -3 -2 -2 -2 -2 -2 -2 -3 -5 -6 -7 -7 -8 -8
1 1 1 0 0 -0 -0 1 1 1 0 0 -0 0 -0 -1 -1 -1 -2 -2 -2 -2 -2 -3 -3 -2 -3 -3 -3 -3 -3 -3 -3 -3 -3 -3 -3 -3 -4 -3 -3 -3 -4 -4 -4 -4 -4 -4 -4 -4 -4 -5 -5 -5 -4 -4 -4 -3 -3 -4 -4 -3 -3 -3 -3 -3 -3 -3 -3 -3 -3 -3 -3 -3 -2 -2 -2 -2 -2 -4 -6 -7 -8 -8 -8 -8
0 1 0 -0 -0 -1 -1 1 1 0 0 -0 -1 -1 -1 -1 -1 -2 -2 -2 -2 -3 -3 -3 -3 -3 -3 -3 -3 -4 -3 -3 -4 -4 -4 -4 -4 -4 -4 -4 -4 -4 -4 -5 -5 -5 -5 -5 -5 -5 -5 -5 -5 -5 -5 -4 -4 -4 -4 -4 -4 -4 -4 -4 -3 -3 -3 -3 -3 -3 -3 -3 -3 -3 -3 -3 -2 -2 -3 -5 -6 -8 -8 -8 -9 -9
1 1 0 -0 -1 -1 -1 0 -0 -1 -1 -1 -1 -1 -1 -1 -2 -2 -2 -2 -3 -3 -3 -3 -3 -3 -3 -3 -3 -4 -4 -4 -4 -4 -4 -4 -4 -4 -5 -5 -5 -6 -6 -6 -6 -6 -6 -6 -6 -6 -6 -6 -5 -5 -5 -5 -5 -5 -5 -4 -4 -4 -4 -4 -4 -4 -3 -3 -3 -3 -3 -3 -3 -3 -3 -3 -2 -2 -3 -5 -7 -8 -8 -8 -8 -9
0 0 -0 -1 -2 -2 -2 -1 -1 -2 -2 -2 -1 -1 -1 -2 -2 -3 -2 -3 -3 -3 -3 -3 -3 -3 -3 -3 -3 -4 -4 -5 -5 -4 -4 -5 -5 -6 -6 -7 -7 -7 -8 -8 -8 -7 -7 -7 -7 -7 -6 -6 -6 -6 -6 -5 -5 -5 -5 -4 -4 -4 -4 -4 -4 -4 -3 -3 -3 -3 -3 -3 -3 -3 -3 -3 -2 -3 -4 -5 -6 -8 -8 -8 -8 -9
0 0 -0 -1 -2 -2 -1 -1 -1 -2 -2 -2 -1 -2 -2 -2 -2 -3 -3 -3 -3 -3 -3 -4 -4 -4 -4 -3 -3 -4 -5 -5 -5 -5 -5 -6 -7 -7 -8 -8 -8 -8 -8 -8 -8 -8 -7 -7 -7 -7 -7 -7 -7 -7 -6 -6 -6 -5 -5 -5 -4 -5 -5 -5 -4 -4 -3 -3 -3 -3 -3 -3 -3 -3 -3 -3 -2 -3 -4 -6 -7 -7 -8 -8 -8 -8
Height
817 815 822 829 831 832 835 840 838 836 836 835 835 834 833 834 826 817 815 819 821 811 803 804 804 798 789 782 780 779 777 776 773 771 771 770 769 767 765 763 761 760 759 757 755 752 750 748 747 746 745 744 744 743 743 743 743 742 742 741 741 741 740 741 741 741 742 743 744 744 744 743 742 743 743 743 743 743 743 744 745 746 747 749 749 750
818 821 831 835 835 838 841 844 840 837 838 835 834 831 828 832 825 814 817 821 821 816 807 807 803 789 783 782 780 780 778 776 776 774 773 771 770 768 766 764 763 762 761 759 756 754 753 751 749 747 746 745 746 745 744 744 744 743 743 742 742 741 741 740 740 740 740 740 741 741 741 740 740 741 741 740 740 740 741 742 743 744 745 746 746 746
822 828 834 836 840 841 842 843 838 835 836 835 835 830 824 826 823 814 814 818 821 819 806 805 803 786 782 785 781 780 779 777 778 777 775 773 771 768 766 766 765 763 762 760 759 758 756 755 753 750 750 749 749 748 747 746 745 744 743 742 742 741 741 741 740 740 740 739 740 740 740 740 740 740 740 740 740 740 740 740 741 742 742 743 742 743
828 830 835 842 841 835 833 835 836 833 832 834 832 827 823 827 827 817 812 816 822 822 813 808 804 792 786 784 777 777 779 777 777 776 774 774 772 769 769 768 768 765 763 762 762 762 760 757 756 755 754 752 751 751 750 749 748 746 745 743 742 741 740 740 740 740 740 740 740 740 740 740 740 739 739 739 739 739 738 738 739 739 738 739 738 739
831 834 839 842 837 832 830 831 836 832 826 831 829 825 825 828 833 828 823 825 821 820 820 808 794 786 785 783 774 775 778 775 775 774 771 771 772 771 770 769 769 767 766 766 765 764 763 761 760 759 757 755 754 754 753 752 751 749 747 745 743 742 740 740 740 740 740 740 740 740 739 739 738 738 737 737 736 735 735 734 734 734 734 735 735 736
832 839 839 834 833 834 831 830 837 836 828 825 824 826 827 829 835 836 835 828 808 803 814 810 793 782 782 783 777 775 777 773 772 773 769 768 770 769 769 769 769 769 768 768 767 766 766 765 765 763 762 761 759 758 757 755 754 751 749 747 745 743 742 741 741 741 741 740 740 739 739 738 737 735 734 733 731 730 730 729 729 729 730 731 731 732
832 839 840 834 833 833 830 832 837 840 833 822 822 828 832 834 835 836 836 823 803 802 815 817 806 795 786 780 780 782 780 773 771 771 768 768 769 768 770 771 770 771 769 769 768 768 769 768 769 768 767 767 766 764 762 758 755 753 751 750 748 746 744 742 742 741 740 740 739 739 738 736 735 733 731 729 728 727 726 726 726 726 727 727 728 728
832 831 834 835 833 829 829 831 835 840 833 819 822 831 832 833 831 835 834 822 817 817 815 817 814 807 796 780 783 790 782 773 770 769 767 767 767 769 771 773 773 772 772 772 771 770 772 772 773 774 773 772 771 769 766 762 759 756 754 752 750 748 746 745 743 742 741 740 739 738 737 735 734 732 729 727 727 725 724 723 723 723 723 723 724 724
836 830 832 835 833 831 829 832 836 840 831 818 824 833 835 834 832 837 832 823 834 825 804 810 814 809 802 785 786 790 779 773 772 769 770 768 769 772 773 774 775 775 776 777 777 776 777 779 779 778 777 776 774 771 769 767 764 760 757 754 751 749 748 747 745 744 742 741 739 738 736 734 732 730 728 725 724 722 722 720 719 719 719 719 719 719
837 836 841 839 834 833 829 832 838 837 830 825 830 833 835 841 839 839 834 824 830 819 800 810 814 811 807 789 784 786 776 777 778 775 777 775 776 779 778 780 781 783 785 785 785 784 784 784 783 781 779 777 775 773 771 768 765 763 759 756 753 750 749 747 746 745 743 742 740 738 736 733 730 728 726 723 721 719 719 717 715 715 715 714 715 715
840 843 846 842 837 837 835 837 841 839 835 830 830 823 820 833 837 836 840 831 818 808 805 815 816 817 815 794 783 785 782 788 792 788 786 785 787 792 793 795 794 795 796 794 793 791 788 787 784 782 780 778 776 774 771 769 767 764 762 759 756 753 750 747 745 744 742 741 739 737 735 733 730 727 725 722 719 717 716 714 712 711 710 710 710 711
839 838 839 841 841 843 838 834 838 844 844 834 828 822 814 820 824 820 824 822 813 807 811 820 820 820 819 796 779 783 792 804 808 804 803 803 804 806 806 805 803 803 802 800 798 795 792 789 786 784 782 780 777 774 772 771 768 766 764 762 759 755 751 748 745 743 741 740 738 736 734 732 729 727 724 721 718 716 714 712 710 708 707 706 706 707
832 831 838 841 843 846 837 830 833 836 837 832 829 830 824 824 826 821 817 820 819 812 812 821 822 818 812 794 783 793 806 815 820 819 818 818 814 811 810 809 807 806 804 803 801 799 796 792 790 787 784 782 779 776 774 772 769 767 764 762 760 756 753 749 745 742 740 739 737 735 733 730 728 725 723 720 717 714 712 710 708 706 704 703 702 702
833 830 835 836 838 843 839 835 836 833 833 836 837 837 833 836 843 840 834 834 828 815 814 824 826 815 802 795 802 815 819 820 823 824 822 820 817 814 813 811 808 806 806 805 804 801 798 795 792 789 787 784 781 778 775 772 769 767 764 762 759 756 753 749 745 741 739 737 735 734 731 728 726 723 720 718 715 712 710 708 705 703 702 700 698 698
849 839 835 833 837 840 839 841 844 842 841 845 850 845 837 840 849 849 838 832 828 824 825 825 819 809 797 800 818 826 822 823 824 825 823 819 817 816 813 811 808 807 806 805 803 801 798 795 792 790 787 784 781 778 775 772 769 766 764 762 759 756 752 748 744 740 737 735 733 731 729 727 724 721 718 715 713 710 707 705 703 701 699 698 695 694
860 848 838 840 846 842 839 844 848 844 840 848 855 845 838 841 846 846 840 839 843 844 838 824 811 805 799 805 822 826 822 825 825 825 823 820 819 817 815 813 811 810 808 805 802 799 797 794 791 789 786 783 780 777 774 771 769 766 763 760 758 756 752 749 744 740 736 733 730 729 726 724 722 719 717 713 710 708 705 702 700 697 696 695 693 691
861 847 837 841 845 843 845 847 848 844 837 844 849 838 843 854 849 845 846 851 857 851 839 825 812 809 804 805 819 825 822 824 824 824 823 822 822 820 818 816 814 811 809 805 803 800 797 794 791 789 787 783 780 777 774 771 768 766 763 759 756 754 751 747 743 739 735 731 728 725 723 721 719 717 715 712 708 705 702 699 697 694 692 692 690 688
874 857 843 845 839 839 854 852 847 852 846 840 841 840 849 854 849 852 853 849 850 846 834 822 813 812 809 810 825 832 829 829 828 826 825 824 822 820 819 817 814 812 808 805 802 799 796 793 790 788 785 782 780 777 774 770 767 764 761 759 755 752 749 745 741 737 733 729 726 722 720 718 716 715 712 710 707 703 699 696 693 691 689 688 687 685
883 863 845 852 847 841 852 849 840 849 853 846 844 846 849 847 845 853 854 847 849 850 837 820 810 815 822 829 841 844 839 838 835 830 829 825 822 821 818 815 813 810 807 804 801 798 795 792 789 787 784 781 778 775 772 768 764 761 758 756 753 750 747 744 740 737 732 728 725 721 718 715 713 711 709 707 704 700 697 693 690 688 686 684 683 682
883 868 849 851 852 844 841 840 836 841 848 849 849 847 848 849 847 849 852 849 850 849 843 829 815 819 838 849 851 849 844 842 839 834 831 828 825 823 819 817 814 810 807 803 799 796 793 791 789 786 783 780 777 773 769 765 761 757 754 751 748 746 743 741 738 735 730 726 723 719 716 712 710 708 705 703 700 697 694 691 688 686 683 681 680 678
879 873 858 847 849 846 838 839 841 841 844 844 844 844 845 847 847 850 853 851 849 845 844 843 827 823 844 851 847 848 845 842 840 836 833 830 826 824 821 819 816 811 807 802 798 794 790 789 787 784 781 778 775 772 767 763 759 754 751 747 745 742 739 737 734 731 727 723 719 715 712 708 706 703 701 699 696 693 690 688 685 683 680 678 676 674
878 877 872 859 853 845 836 841 846 845 847 845 843 843 846 848 849 853 854 849 851 847 842 845 833 826 843 848 844 847 844 841 841 837 833 831 827 825 822 819 815 810 806 801 797 792 789 787 784 781 778 775 771 768 764 760 756 751 748 745 741 739 735 733 730 726 723 719 715 712 708 705 701 698 696 694 691 689 686 684 682 680 677 675 672 671
884 885 882 867 857 848 841 849 856 854 852 849 849 850 852 854 854 857 856 849 852 849 844 847 838 832 846 847 840 843 842 840 840 836 834 831 826 824 819 815 812 807 803 799 794 790 788 787 784 779 776 772 768 765 760 756 752 748 745 741 738 735 732 729 725 722 719 715 712 708 704 701 698 694 691 688 686 685 682 680 678 676 674 671 669 668
886 885 878 860 853 849 842 847 857 857 852 847 851 858 859 861 862 863 861 861 860 851 849 855 841 831 844 845 838 839 838 836 834 831 830 825 820 818 814 811 807 802 799 795 791 790 788 785 782 777 773 770 766 762 757 753 749 745 742 738 735 732 728 725 721 718 715 711 707 704 701 697 694 690 687 684 682 680 677 676 674 672 670 668 666 664
881 878 875 864 859 855 846 846 848 847 848 845 850 865 870 872 875 872 869 875 870 855 856 865 847 828 833 838 835 836 834 832 830 826 824 821 817 815 811 808 804 800 797 793 790 789 787 783 779 775 771 768 764 760 755 751 747 743 740 736 732 729 725 721 718 714 711 707 703 699 696 693 690 686 683 680 678 675 673 671 669 668 666 664 662 660
883 881 878 870 870 873 868 863 854 849 852 848 854 875 884 882 885 880 878 883 877 865 867 869 852 833 831 833 835 838 838 835 831 826 824 821 817 813 809 805 802 799 795 792 790 788 785 781 777 772 769 765 761 757 752 748 744 740 737 733 729 725 721 717 713 710 705 701 698 695 692 689 686 683 680 677 674 671 669 667 665 663 662 660 658 656
891 889 883 872 869 871 869 863 856 858 862 858 866 885 890 888 890 888 890 892 886 879 873 861 850 842 837 837 841 843 840 836 831 827 824 820 815 811 807 804 801 797 793 790 788 786 782 778 773 768 765 761 757 753 749 745 741 737 733 729 724 721 716 712 708 704 700 697 694 691 689 686 683 680 677 673 670 667 665 662 660 659 657 655 653 651
888 881 883 882 871 864 864 863 861 865 872 876 885 893 891 891 892 892 897 895 887 883 872 855 850 847 841 842 845 844 840 836 832 828 824 819 814 810 807 804 800 796 792 789 786 782 778 774 769 765 761 757 753 749 745 741 737 734 729 724 720 716 712 708 704 700 697 694 691 688 685 682 679 676 672 669 666 663 660 658 656 654 653 651 649 647
887 876 886 891 878 871 873 871 869 873 881 890 897 895 892 893 892 892 895 891 885 884 874 857 851 847 843 845 846 843 840 836 830 827 822 818 813 810 807 803 798 793 789 786 783 780 776 770 765 761 757 753 749 744 740 736 732 729 725 720 716 712 708 705 701 697 694 690 687 684 681 678 675 671 668 664 661 658 656 654 652 650 648 646 645 642
888 877 891 899 886 877 874 871 871 873 881 895 901 896 894 893 890 891 890 885 883 881 871 858 850 846 845 848 846 841 837 832 828 824 821 816 811 808 804 799 794 790 786 783 780 776 772 766 761 758 753 748 744 740 736 732 728 724 720 716 712 708 704 702 698 694 691 687 683 680 677 674 670 667 664 660 657 654 652 649 648 646 643 642 640 638
885 878 892 899 886 870 862 863 867 868 879 898 902 895 893 891 888 888 887 883 882 877 867 858 853 849 848 848 845 839 834 830 826 822 818 814 809 804 800 795 790 786 783 781 777 772 767 762 757 753 749 744 739 736 733 728 725 720 716 712 708 704 701 697 694 691 687 683 679 676 673 670 666 663 660 657 654 651 648 645 643 641 639 637 635 633
890 885 890 894 885 868 856 857 864 871 882 897 902 898 896 893 890 888 885 882 881 875 865 860 859 855 849 845 841 836 832 829 825 820 816 811 807 802 797 792 788 785 782 778 773 768 763 758 753 749 744 739 735 733 729 725 720 716 712 708 703 700 697 693 690 686 682 679 675 672 669 666 662 659 656 653 650 647 644 642 639 637 635 632 630 629
902 893 890 895 888 869 858 860 866 869 870 881 898 903 898 895 893 887 883 880 877 871 867 865 863 855 846 842 838 833 830 827 821 816 814 810 806 800 794 790 787 783 780 774 769 764 758 753 749 744 739 735 732 729 725 721 716 711 707 703 699 696 693 689 686 682 678 675 671 668 665 662 658 655 652 648 646 643 640 638 635 633 630 627 626 624
909 900 898 903 892 872 867 871 868 863 862 876 896 900 895 895 894 886 881 878 871 865 865 864 859 851 846 843 839 834 829 825 818 813 812 810 805 799 793 789 787 782 776 770 764 759 754 750 745 739 735 731 729 725 721 717 712 707 703 699 695 692 689 685 681 678 674 670 667 664 661 658 654 651 648 645 642 639 636 634 631 628 625 623 620 618
902 900 902 907 898 880 875 881 877 870 875 888 895 892 891 892 889 883 877 873 868 864 863 863 858 852 849 844 839 835 828 821 814 808 807 806 801 798 794 789 785 780 773 767 760 755 751 746 740 735 731 729 725 721 716 712 708 704 699 696 692 689 686 682 678 674 671 667 664 660 657 654 650 647 644 641 638 635 632 629 626 623 620 618 615 612
899 901 903 905 902 888 882 892 892 883 888 898 894 889 891 890 886 884 876 868 867 866 865 864 859 853 849 844 838 832 825 817 808 800 800 801 797 796 795 788 781 776 769 764 759 752 747 743 739 734 730 726 722 718 713 709 705 701 696 693 690 686 682 678 675 671 668 664 661 657 654 651 647 643 640 637 634 631 627 624 622 618 616 612 609 606
904 904 902 901 904 900 896 897 892 883 887 897 896 893 895 891 889 889 880 866 864 867 867 864 858 852 847 842 836 829 820 812 802 792 792 795 792 791 789 783 777 771 765 761 755 749 745 742 738 734 728 723 719 714 710 706 702 698 693 689 686 682 678 674 671 668 664 661 657 654 650 647 644 640 636 633 629 626 622 620 617 613 610 607 603 601
908 907 906 903 905 908 906 902 898 891 888 894 898 895 893 889 886 887 882 869 862 865 867 863 856 850 844 838 833 827 817 806 794 786 786 788 786 783 779 774 771 766 760 755 749 744 742 738 734 730 724 719 715 710 707 703 698 694 690 685 681 677 673 670 666 663 660 657 653 650 647 644 641 637 633 629 625 622 618 615 612 608 605 602 599 596
909 911 910 908 909 912 913 912 908 898 890 894 899 892 887 887 882 881 884 875 864 864 865 861 855 849 842 837 831 826 822 812 793 778 778 781 780 776 772 767 764 760 756 751 747 742 737 732 728 723 719 715 710 705 702 698 694 690 685 680 676 672 669 665 662 659 656 653 650 647 643 640 636 633 629 625 621 618 615 611 607 603 600 597 594 591
908 912 912 915 919 918 917 915 907 895 891 895 894 889 887 883 878 885 890 877 864 863 863 859 855 849 842 837 830 825 825 820 801 781 774 775 773 770 768 763 758 754 751 747 744 740 734 729 724 719 714 710 705 701 697 693 689 685 680 676 672 668 665 661 658 655 652 649 646 643 640 636 632 628 625 621 617 614 611 607 603 598 595 591 588 585
916 923 921 921 923 920 918 917 906 894 892 894 889 886 886 882 885 898 896 877 865 865 863 859 855 849 843 837 831 825 820 815 805 790 778 773 767 762 760 758 753 750 747 742 738 734 729 725 721 716 712 707 703 698 694 690 685 681 677 673 669 665 661 658 655 652 648 645 642 639 635 632 628 625 621 617 614 610 606 602 598 594 590 586 582 580
927 933 929 925 924 921 916 917 911 896 888 889 888 886 887 893 899 899 887 874 870 868 863 858 853 848 842 836 831 824 815 806 799 790 780 774 767 759 754 751 746 743 739 735 731 727 722 718 714 711 707 703 700 695 691 687 683 678 674 670 666 662 658 655 651 648 644 641 638 635 632 628 624 621 617 613 610 606 601 597 593 589 586 582 579 577
933 935 932 927 926 924 918 920 922 906 888 887 892 892 893 900 900 889 877 874 873 868 863 858 850 845 842 836 828 820 811 801 794 787 780 773 767 760 754 749 744 739 734 729 725 722 718 712 708 704 701 697 695 691 688 684 680 675 671 667 663 659 656 652 648 645 641 638 635 632 628 624 621 617 613 610 606 602 597 592 588 585 583 581 577 574
937 939 941 936 931 932 931 928 923 907 892 893 900 899 896 895 891 884 878 874 869 866 864 857 848 843 840 833 825 817 807 799 792 785 779 771 766 761 754 749 745 739 732 728 724 719 715 710 704 701 696 693 691 688 685 682 677 673 668 664 660 657 653 649 646 642 638 635 632 628 625 621 617 614 610 606 602 598 594 589 585 583 581 579 576 573
934 937 943 940 932 931 931 922 913 904 898 899 901 897 893 888 885 883 879 872 866 864 861 855 848 841 836 830 822 813 805 797 790 784 778 771 765 760 753 748 745 739 733 728 723 718 714 708 703 698 693 690 688 685 682 679 674 669 665 661 657 654 650 646 643 639 635 632 628 625 621 618 614 610 607 603 599 595 591 586 584 582 580 578 576 573
934 932 937 936 929 924 916 907 906 906 903 900 898 894 889 884 881 879 875 869 864 858 855 853 847 837 830 826 819 810 802 795 787 781 777 771 764 758 753 747 742 737 733 727 721 717 712 707 702 697 691 688 686 682 678 675 671 666 661 658 655 651 647 644 640 636 633 629 625 622 619 615 611 607 604 601 597 593 589 585 583 582 579 577 575 573
934 932 934 933 931 927 914 901 901 905 902 899 895 891 886 881 877 874 870 864 859 852 848 847 843 835 826 820 815 807 799 792 786 778 773 768 761 755 750 745 739 734 730 725 721 716 710 704 700 695 690 685 682 679 674 669 665 662 658 655 651 647 644 641 638 633 630 626 622 620 616 613 609 605 601 598 594 591 587 584 583 581 579 576 575 574
935 932 933 931 931 930 918 905 900 898 896 895 891 885 881 876 871 868 865 860 855 849 841 837 834 832 825 816 810 803 794 788 785 779 771 765 758 752 748 743 739 734 728 723 719 714 709 704 699 694 689 684 678 675 671 665 661 658 655 651 648 644 641 638 635 631 627 623 620 617 614 610 607 602 599 595 592 588 586 584 582 580 578 576 575 574
936 932 931 930 929 925 917 907 901 893 886 886 886 882 879 875 871 866 862 857 852 846 838 830 824 823 822 816 808 800 792 786 783 778 770 763 756 751 747 743 738 734 729 724 719 714 710 705 699 693 688 683 677 673 668 663 659 656 653 648 644 641 638 635 632 628 624 621 618 614 611 608 604 601 597 594 590 587 584 583 581 579 577 576 575 574
938 935 933 932 931 927 919 914 911 903 892 887 886 883 879 876 873 868 861 856 851 845 839 831 820 814 812 810 806 800 793 786 781 775 768 763 758 755 750 744 738 732 728 724 718 713 709 704 698 693 687 682 677 672 666 662 657 653 649 645 641 639 636 632 628 625 621 618 615 612 608 605 602 599 596 593 589 586 583 582 581 579 577 575 574 574
940 938 936 936 934 928 920 916 916 912 902 892 888 886 881 876 874 870 863 858 852 846 840 834 824 814 806 802 802 800 793 785 779 773 767 763 760 756 751 746 740 733 727 723 716 710 706 702 697 692 687 681 676 670 664 659 654 649 646 642 638 636 633 630 626 622 618 616 613 609 606 603 600 597 595 592 588 585 582 581 580 578 577 575 574 574
Wind_Speed
3 6 5 2 5 7 6 3 4 4 2 3 3 3 5 5 6 8 6 5 5 6 5 4 6 9 9 10 8 8 7 6 6 7 7 6 6 5 6 6 6 6 5 8 14 20 24 26 26 25 26 24 21 22 20 18 18 16 15 16 17 18 18 20 22 24 24 25 25 25 28 32 35 36 36 37 39 40 41 41 41 41 40 39 38 38
5 7 4 6 7 7 5 3 4 3 0 0 2 4 5 3 6 9 4 4 6 4 5 5 9 11 8 8 8 7 6 5 5 5 6 6 6 5 4 6 6 5 5 8 12 19 24 26 28 28 29 28 27 26 25 24 23 21 19 19 19 19 19 20 21 23 24 26 26 26 27 30 32 33 33 36 37 38 39 40 40 39 39 39 39 39
6 5 6 7 5 4 2 4 3 2 1 1 1 2 4 3 5 9 4 3 6 2 5 6 8 11 9 7 9 6 4 5 5 3 5 5 5 6 5 5 6 6 6 8 9 14 19 22 26 28 28 27 26 26 25 25 24 23 23 22 21 20 20 21 21 22 24 25 25 26 26 26 27 27 29 31 32 33 35 37 38 38 39 40 40 40
4 3 5 3 3 4 3 5 7 4 3 1 1 2 5 4 3 5 4 8 9 1 3 6 5 8 7 6 7 6 4 5 6 5 6 5 5 6 6 5 5 6 7 8 8 9 13 18 22 23 24 25 25 25 25 25 25 25 24 24 22 20 19 19 20 21 23 23 23 24 25 25 25 25 26 26 28 30 32 34 36 38 40 41 41 41
2 4 3 4 6 5 3 6 7 6 5 3 1 1 5 6 2 4 6 10 9 2 2 6 5 4 4 6 7 5 4 5 5 6 6 5 4 5 5 5 5 5 6 7 8 8 9 14 17 19 21 24 25 25 25 26 26 26 26 25 23 21 19 18 18 19 20 21 23 22 23 24 24 26 25 24 27 30 32 34 36 38 40 41 42 42
0 4 2 4 6 6 5 4 4 3 5 5 3 3 4 6 5 5 7 7 6 4 4 6 5 5 4 5 7 5 6 7 6 5 6 6 6 5 6 6 6 6 5 5 6 7 8 12 16 19 22 23 25 25 25 27 28 28 28 26 24 22 21 19 18 18 18 20 21 22 21 22 23 23 24 27 30 32 33 35 36 37 38 39 41 41
2 4 3 3 3 6 6 3 1 2 5 5 3 3 2 4 6 5 5 3 3 4 5 5 4 5 6 6 7 5 7 10 8 7 7 6 6 5 5 5 6 7 7 6 7 8 9 12 15 19 23 25 25 26 27 30 32 32 31 29 26 24 21 20 18 17 16 17 19 21 22 24 25 24 27 31 32 33 33 34 34 35 36 37 39 40
2 6 6 5 4 6 6 4 2 3 4 4 2 1 5 7 5 3 1 1 1 3 5 4 3 2 5 6 6 5 7 9 8 8 8 6 6 5 5 5 6 6 7 7 8 8 8 12 16 20 24 27 29 32 34 35 35 35 34 33 31 28 26 23 21 18 16 16 17 20 22 25 27 28 32 34 33 32 32 31 32 33 34 35 37 39
1 4 5 4 5 5 3 4 3 3 1 6 5 4 6 5 3 3 4 2 1 2 4 5 2 1 5 7 5 5 4 7 8 8 9 8 7 6 6 6 7 8 9 9 9 9 10 15 22 25 28 31 35 38 39 39 39 40 39 38 36 34 32 29 26 23 20 17 18 20 22 25 28 29 32 34 34 33 31 30 32 32 33 34 35 38
1 1 1 2 4 3 4 6 3 5 2 7 5 5 2 2 2 3 4 2 2 4 2 5 3 3 5 7 6 5 4 6 8 8 8 8 8 7 7 8 10 13 14 14 14 15 17 22 27 31 33 35 37 38 40 41 42 42 41 40 39 37 35 33 31 29 27 23 21 22 23 26 29 30 31 32 32 32 30 31 32 31 32 33 35 36
2 1 2 3 0 2 4 6 2 5 4 6 6 5 4 4 3 3 2 3 4 3 5 5 1 3 3 7 4 2 4 6 7 9 10 11 12 12 11 11 15 16 15 14 14 18 24 28 31 33 33 34 36 38 39 40 40 40 40 39 38 36 34 32 32 31 30 29 27 25 25 26 29 31 31 31 31 31 29 30 32 32 32 33 34 35
4 2 0 1 2 0 3 6 2 1 3 4 5 5 5 5 4 4 4 4 4 5 6 4 1 1 2 6 5 4 6 10 10 10 13 15 16 16 14 14 15 14 12 13 12 14 20 24 27 30 30 32 35 36 37 37 37 37 37 36 36 36 35 32 31 30 30 31 30 28 27 27 28 30 30 31 31 31 29 30 31 31 32 32 33 34
3 1 2 4 2 1 3 5 5 4 5 6 5 6 6 5 5 5 5 4 2 6 4 2 2 2 4 8 6 7 11 15 13 10 11 13 14 15 14 13 11 10 11 12 11 12 13 15 20 25 27 30 32 33 35 35 36 35 35 35 34 35 36 34 32 31 31 32 31 31 30 29 28 28 29 30 31 32 30 30 31 31 31 31 32 33
4 4 5 5 3 1 3 5 6 5 5 7 3 4 4 3 5 5 5 4 4 7 3 1 1 2 5 4 4 8 11 13 13 12 12 13 14 13 11 11 10 11 11 10 10 11 10 13 19 23 25 28 30 32 34 35 36 36 36 36 35 35 36 35 33 33 33 33 34 33 33 32 31 30 29 29 30 31 31 31 31 32 31 31 32 33
5 5 4 3 2 2 4 3 1 1 2 3 2 3 2 2 0 4 4 3 6 8 5 3 1 2 4 4 7 7 10 12 12 12 12 13 13 11 11 12 12 12 11 9 10 11 12 16 22 25 26 28 30 32 34 34 36 36 36 37 36 36 37 36 34 33 33 33 34 34 35 35 34 33 32 31 31 31 31 30 31 33 33 33 34 34
3 5 7 3 2 1 2 1 1 2 2 3 2 3 2 1 3 2 4 5 3 5 5 3 2 5 4 3 8 8 10 13 11 10 13 14 13 12 12 13 12 11 11 11 11 12 15 21 26 27 28 30 31 33 33 33 34 35 36 37 36 36 36 35 33 33 32 32 33 34 35 35 36 35 35 35 34 33 31 30 30 32 34 34 35 35
2 6 7 5 3 1 2 2 1 2 1 1 1 1 2 3 5 2 4 2 2 2 4 2 3 5 3 4 9 14 14 15 13 12 13 12 12 12 11 11 11 11 12 12 12 11 14 21 25 27 29 30 32 33 33 33 33 33 33 34 35 37 37 36 34 33 32 31 31 33 34 34 35 35 36 36 37 36 34 31 30 31 33 34 35 35
1 5 7 4 3 4 2 2 2 2 1 2 2 3 2 1 4 3 2 3 3 3 4 3 7 7 4 3 9 16 17 16 15 14 13 13 13 13 12 12 12 13 13 14 14 13 14 19 23 26 29 30 32 33 32 32 33 32 32 32 32 34 36 37 36 35 33 31 30 32 33 34 34 35 35 36 38 38 36 33 32 31 32 33 34 34
2 3 7 1 3 8 2 3 4 4 2 2 1 2 2 1 2 2 1 3 4 5 5 5 8 6 1 3 7 12 13 13 14 14 14 15 15 13 14 15 15 16 15 15 15 13 13 18 23 26 29 31 33 33 33 33 33 33 32 32 31 32 34 35 35 34 33 31 30 30 32 33 34 34 34 35 37 38 37 36 35 33 32 32 32 32
1 1 5 4 4 7 4 4 4 5 5 4 2 2 2 2 4 2 1 2 2 5 5 5 6 3 1 1 5 7 9 11 12 13 14 15 15 14 14 15 16 17 15 15 15 13 12 16 22 25 28 31 33 34 34 34 34 34 34 33 32 33 34 35 35 33 32 32 31 31 32 33 33 33 33 34 35 36 37 37 36 35 34 32 30 30
1 1 3 6 6 5 4 2 1 2 3 3 3 4 4 2 1 2 2 1 1 5 5 4 5 3 2 0 3 6 8 10 12 13 13 14 16 16 15 14 14 15 16 16 16 14 13 16 22 27 31 32 33 34 35 34 34 34 34 34 33 33 34 34 35 34 33 33 33 32 32 33 33 32 32 33 34 34 36 37 37 37 35 32 30 29
1 1 2 5 5 4 5 5 3 4 4 2 1 2 3 3 2 3 5 2 1 3 4 5 8 5 2 2 1 4 8 10 13 15 14 14 16 16 14 13 13 14 15 16 16 15 12 15 23 30 33 33 33 35 36 35 35 34 34 35 34 33 33 33 34 34 34 34 33 33 33 33 33 33 32 33 33 34 34 35 36 37 35 33 32 29
0 2 0 4 4 6 10 5 1 2 3 4 2 1 1 0 2 1 6 5 3 4 2 3 6 5 3 4 2 3 8 11 12 14 13 14 14 14 14 14 14 15 16 17 16 12 11 18 27 31 32 31 32 35 36 35 34 34 35 35 35 34 34 35 35 34 34 34 34 35 34 33 33 32 32 32 32 33 34 35 36 36 35 34 33 31
1 3 2 5 4 6 9 5 2 1 2 1 2 2 2 3 4 4 6 2 4 7 4 3 6 4 3 5 2 6 14 16 16 17 17 16 15 15 16 16 16 18 19 18 14 12 17 25 28 27 26 27 30 34 35 34 34 35 36 36 35 35 36 36 35 34 34 34 34 35 35 35 34 32 31 30 31 33 34 35 35 35 35 35 33 32
2 1 2 4 6 8 8 7 5 3 2 2 2 4 6 7 8 5 4 3 1 6 6 5 8 6 2 3 6 16 22 22 21 21 21 20 18 17 16 15 16 18 18 16 14 15 19 22 22 21 22 25 28 31 32 32 34 34 35 36 36 36 36 36 35 34 34 34 35 35 36 36 36 34 32 31 31 32 34 35 35 34 34 34 33 32
1 1 2 3 4 7 7 7 8 6 6 5 3 7 8 9 10 6 4 3 2 6 9 7 9 9 8 8 13 19 20 19 20 21 21 20 18 16 15 14 16 17 16 15 15 15 16 16 17 20 23 25 29 31 31 31 33 34 34 35 36 35 36 36 35 34 34 34 34 34 35 36 36 34 34 33 33 33 33 34 34 34 34 33 33 32
2 1 2 5 4 5 6 9 9 5 7 9 8 9 8 7 8 5 3 3 5 7 7 8 12 14 12 10 13 16 17 19 20 20 19 18 17 16 15 15 17 17 15 13 13 14 15 15 16 19 23 28 31 33 33 32 33 34 34 34 36 36 36 36 35 35 35 35 34 34 34 35 35 35 34 34 34 33 33 34 33 33 33 33 33 31
4 2 3 5 7 9 8 11 13 9 6 6 8 9 8 8 8 8 6 5 9 7 6 11 18 18 13 11 14 17 18 19 19 18 17 17 16 16 15 17 19 17 13 12 14 16 17 17 16 17 24 29 32 33 34 34 34 34 33 34 36 36 36 36 35 35 35 35 34 34 34 35 35 36 36 35 34 33 33 33 33 33 33 33 32 31
4 2 3 3 6 10 10 12 13 8 2 4 7 8 9 9 8 9 7 8 9 8 11 18 22 20 13 11 15 19 18 18 18 16 16 16 16 15 16 18 19 16 13 15 18 18 18 18 16 16 23 29 31 32 34 34 35 35 35 36 37 37 37 36 35 34 35 35 34 34 35 35 36 36 36 35 34 34 33 33 33 33 33 33 32 32
3 2 3 2 5 11 11 10 7 3 1 5 7 7 7 7 7 8 8 10 12 13 16 21 24 19 11 11 17 19 17 16 15 15 16 17 17 17 18 19 18 15 14 16 19 19 19 18 17 18 24 28 29 30 32 33 35 35 36 37 37 37 37 36 34 34 35 34 34 35 35 36 36 35 34 34 35 35 34 33 32 32 32 32 31 31
2 3 1 3 5 11 9 5 3 1 4 5 7 9 10 11 12 11 11 12 13 15 18 20 20 14 8 11 17 18 16 16 17 18 18 17 18 20 21 20 17 14 16 19 20 20 20 19 18 19 23 26 28 30 31 33 35 36 36 37 37 37 37 36 34 34 34 34 35 36 35 34 33 32 32 34 34 34 34 34 32 31 31 31 30 30
3 3 2 5 5 10 9 9 12 5 7 7 9 12 13 13 13 12 11 12 13 17 20 16 11 9 10 13 16 17 18 20 20 20 18 16 18 22 21 19 16 15 18 20 20 21 21 19 19 20 23 26 29 30 31 34 35 35 36 36 37 37 36 35 35 35 35 35 35 35 34 33 32 31 32 33 33 33 33 33 32 31 31 30 29 28
2 1 3 4 3 9 11 13 13 6 2 2 4 8 11 13 14 15 13 12 15 15 14 10 7 11 15 17 18 19 20 22 21 18 17 17 20 22 19 17 16 18 20 21 21 22 21 19 20 24 28 29 29 32 36 37 36 35 36 37 37 37 35 35 35 35 35 35 35 34 33 32 31 30 32 33 33 33 32 32 31 31 30 30 29 28
3 3 1 0 1 8 12 12 11 8 6 3 3 4 10 12 14 18 16 15 18 15 10 9 12 18 20 19 21 21 21 22 22 19 17 17 17 17 16 16 18 21 22 21 22 22 19 19 25 32 34 32 32 37 40 39 38 38 38 38 38 36 36 36 36 35 34 34 34 33 32 31 30 30 32 32 32 32 31 31 31 31 31 31 30 28
3 3 1 1 1 5 7 8 10 9 4 2 5 3 11 12 14 20 20 18 19 16 11 14 20 23 21 19 19 19 21 23 24 23 20 17 13 12 14 19 21 22 23 22 22 22 21 23 29 33 33 32 35 39 39 38 39 39 38 38 37 35 36 36 34 33 33 33 33 33 32 31 30 31 31 31 31 31 31 31 30 31 31 31 30 29
2 2 1 1 1 3 5 7 8 6 1 2 3 4 11 14 14 17 19 17 13 11 12 19 22 21 20 20 19 19 21 23 22 20 14 10 9 11 15 19 21 22 21 21 21 23 26 29 32 32 32 34 37 37 37 37 38 37 36 36 34 34 34 33 31 30 31 31 31 31 31 30 30 31 31 31 31 31 31 30 30 31 31 31 31 29
3 2 2 2 1 2 5 6 7 5 2 0 3 5 9 12 11 13 18 16 9 8 14 19 21 22 22 21 20 20 23 22 19 15 10 8 12 17 19 20 21 22 22 25 29 32 33 36 36 36 37 37 37 36 36 37 37 36 35 34 33 33 32 29 28 28 29 29 29 30 30 29 29 30 31 31 31 30 31 31 30 32 31 30 30 28
3 1 1 2 1 2 4 7 7 7 6 2 3 7 10 12 14 16 17 13 8 11 16 19 21 24 23 21 20 22 23 22 18 14 11 13 19 22 21 21 23 26 28 31 33 34 35 38 37 37 38 36 35 37 37 36 36 34 32 31 31 31 29 27 27 28 28 28 29 30 30 30 30 30 30 30 30 30 31 31 31 32 32 30 30 29
5 2 4 3 2 3 4 6 6 6 4 2 5 10 13 15 17 16 13 9 8 15 18 20 23 24 21 20 21 20 18 18 17 17 16 18 21 22 21 20 23 29 32 34 35 34 36 39 37 36 36 33 33 37 38 36 36 33 30 30 30 29 27 26 27 28 28 29 30 30 30 30 31 31 29 30 31 31 31 32 32 33 32 30 29 28
6 4 4 5 3 4 5 6 5 3 2 3 8 13 15 17 17 15 11 9 12 17 19 19 22 23 20 20 20 17 16 15 17 22 26 25 23 22 22 22 24 27 30 34 37 37 37 37 34 32 32 32 34 38 38 37 35 31 29 30 29 26 26 27 29 30 30 30 30 30 29 31 32 31 31 31 32 32 32 32 32 33 32 31 30 27
4 3 2 2 3 6 5 5 6 4 2 6 14 17 16 16 13 11 10 11 15 19 18 18 21 21 20 21 19 16 17 18 19 24 28 27 25 23 25 28 30 31 33 35 37 36 34 32 30 29 30 32 35 37 37 35 32 29 30 29 27 26 28 30 32 32 31 30 30 29 30 31 31 31 32 32 32 32 32 31 32 33 32 30 27 23
4 4 2 2 4 5 4 5 8 5 1 9 18 17 13 12 10 8 10 13 15 18 17 18 20 19 18 22 22 20 21 23 24 25 24 24 25 23 24 29 31 32 35 37 36 36 34 31 30 30 31 34 36 36 36 33 30 29 30 28 26 29 31 32 33 33 32 31 29 29 31 31 31 31 31 32 32 32 32 33 34 31 28 26 23 21
2 3 3 3 3 4 4 5 6 6 6 14 17 13 8 8 9 10 12 13 13 15 16 17 18 17 18 23 26 27 29 28 26 24 23 23 23 22 24 26 27 28 33 34 34 36 37 32 29 31 33 36 37 36 35 32 29 29 28 27 29 32 32 32 33 33 32 30 28 29 31 31 31 32 31 32 33 31 32 34 31 25 23 23 23 21
1 1 2 4 1 1 3 3 5 10 12 12 11 9 9 10 10 11 13 12 12 12 12 14 18 20 21 24 28 31 32 29 25 24 25 24 22 21 23 25 26 29 33 34 35 39 39 32 29 32 36 35 34 35 35 32 28 27 28 29 32 34 32 32 34 33 31 28 26 28 29 30 31 32 31 32 33 31 31 30 23 20 22 23 21 16
1 3 1 5 2 1 5 8 9 12 11 9 9 11 14 14 13 13 14 13 12 11 10 13 20 24 24 25 29 29 27 27 26 25 24 24 21 21 23 25 27 29 32 35 37 39 39 34 32 35 36 33 33 36 38 35 30 27 28 31 34 34 32 32 33 31 29 27 25 26 28 30 31 31 31 31 31 29 28 24 18 18 20 19 17 11
2 1 0 3 4 7 9 10 10 9 10 13 14 13 14 15 13 12 13 12 12 12 11 12 19 25 25 23 24 25 24 26 28 25 23 22 21 21 23 24 27 31 32 32 35 39 39 36 34 34 34 33 36 39 39 39 34 29 28 32 35 35 32 31 31 31 28 26 25 26 28 29 29 29 30 30 29 27 25 19 16 17 18 16 12 7
2 1 1 1 4 9 10 11 13 12 12 14 14 12 14 15 14 13 13 13 14 16 15 14 16 21 24 24 23 24 26 26 25 24 23 21 20 22 21 20 24 30 31 31 36 40 39 33 29 30 31 33 37 39 38 40 37 30 29 34 36 35 31 29 29 29 27 26 25 26 27 26 26 28 28 27 26 26 22 17 16 16 15 13 10 4
3 3 4 5 6 8 11 15 19 18 14 13 12 12 13 15 17 17 17 17 20 21 22 23 20 16 19 24 26 25 26 25 24 25 24 20 18 20 20 21 28 34 37 38 40 38 35 31 29 30 30 31 35 38 39 39 36 31 33 37 37 33 28 27 29 29 27 26 25 24 25 25 25 26 26 25 25 24 18 16 17 15 13 12 10 5
5 5 7 9 8 8 10 15 21 22 18 15 15 17 17 17 19 20 20 21 23 22 24 29 31 25 22 25 25 24 24 26 26 27 26 21 19 21 25 30 36 38 39 41 39 34 32 32 32 32 31 31 34 38 38 37 35 35 37 38 35 29 26 27 30 28 25 24 23 22 23 24 24 25 24 24 25 23 17 15 16 14 13 13 11 7
5 7 8 9 9 8 11 14 17 17 16 14 17 20 20 19 18 19 20 21 22 22 23 28 35 36 33 30 25 22 22 25 27 28 24 20 20 25 30 34 36 36 37 38 37 33 32 32 32 32 32 34 37 38 37 37 38 39 38 35 31 28 27 28 28 25 22 21 20 22 23 23 23 24 23 22 23 20 17 17 16 12 11 11 11 8
4 6 7 8 9 11 14 14 12 11 13 16 18 18 20 21 18 18 21 21 20 23 27 28 30 32 32 32 31 27 24 26 30 28 23 21 25 30 33 33 33 34 36 37 34 31 31 34 36 35 35 37 39 38 37 39 40 38 36 34 32 29 28 27 24 21 19 20 20 22 24 23 22 23 22 22 21 18 14 15 16 14 10 7 7 7
Wind_Direction
60 60 33 325 293 298 299 267 240 259 231 240 288 293 282 288 287 289 279 284 352 353 300 313 307 290 290 292 297 315 337 355 356 13 14 3 10 12 24 21 14 23 352 338 7 22 28 31 33 34 33 30 29 24 18 11 1 346 328 311 300 290 274 261 253 247 242 237 236 237 240 245 249 248 246 246 246 245 245 245 243 242 242 241 240 240
55 65 356 274 258 271 301 304 258 261 148 14 301 295 299 275 275 296 288 285 7 22 280 327 330 302 291 289 296 322 345 344 341 356 348 342 347 348 17 17 359 345 332 351 13 19 23 29 35 38 36 32 27 22 20 15 8 359 348 334 320 306 289 277 266 254 249 247 246 245 249 254 255 252 250 251 251 250 248 246 244 243 243 243 242 241
42 50 309 286 272 284 350 44 19 311 91 65 341 311 317 305 289 303 297 309 1 44 273 328 334 301 290 283 286 297 301 287 291 292 283 295 312 324 346 351 349 356 0 7 9 10 15 25 35 38 36 32 26 21 17 12 6 0 354 346 335 320 303 289 276 265 260 260 258 257 259 260 261 260 259 259 258 256 253 249 247 245 245 245 244 243
55 349 312 330 9 358 360 19 25 19 33 45 359 4 320 322 345 316 314 329 333 316 256 301 305 293 304 313 289 275 272 280 297 297 273 259 258 284 306 306 328 359 5 6 3 359 8 21 33 36 34 33 30 25 19 13 8 3 359 355 349 340 322 304 290 279 272 267 265 263 262 261 263 266 267 267 263 259 256 253 249 248 247 246 245 244
116 281 326 42 31 39 36 360 23 29 356 308 230 342 311 313 312 256 291 323 328 325 289 317 324 305 329 343 300 288 330 310 316 333 311 294 280 288 323 329 327 340 342 351 357 358 8 17 24 30 33 34 33 30 25 20 16 11 7 4 1 358 348 331 312 295 283 273 269 266 263 262 263 265 264 263 261 258 253 252 251 250 248 246 245 244
21 287 350 29 18 41 58 22 26 36 350 320 258 229 273 302 291 274 300 328 356 349 330 14 12 303 308 323 287 298 342 317 319 339 304 298 314 334 359 351 339 336 330 337 351 2 12 11 15 24 29 30 29 27 26 26 24 19 15 10 7 5 1 349 333 313 294 281 273 267 264 263 263 263 261 261 262 261 257 256 255 252 250 247 245 244
325 338 48 70 35 33 45 34 345 101 39 344 277 202 251 319 306 303 326 360 20 308 308 53 78 284 313 316 284 302 319 303 311 317 297 296 309 332 349 336 335 342 347 351 354 4 8 6 11 18 21 22 20 18 19 23 24 23 20 17 13 9 5 359 348 331 308 291 281 273 269 267 266 266 269 271 272 270 266 263 259 255 253 250 248 245
308 345 23 43 32 28 29 360 284 127 62 313 258 28 331 320 299 276 74 88 255 283 321 26 100 253 302 288 284 316 313 307 318 309 300 304 305 324 336 323 327 341 358 2 354 357 360 4 10 11 14 16 15 13 13 13 14 15 16 15 15 13 10 7 359 349 329 307 293 284 278 275 273 273 278 281 279 275 271 266 262 259 256 252 250 248
289 344 354 13 20 21 3 313 265 139 70 269 267 341 318 294 259 178 128 145 269 9 338 327 25 345 282 280 304 341 333 317 314 298 295 302 308 326 330 323 334 347 4 9 357 351 355 8 12 11 13 14 14 13 11 8 8 7 8 8 9 9 8 7 3 358 347 328 309 297 288 284 285 286 288 288 283 277 272 267 264 260 256 253 251 249
272 246 215 100 44 352 296 284 223 155 250 282 300 338 352 67 67 100 102 117 40 33 292 284 3 28 291 291 315 352 357 323 307 299 298 297 312 335 331 336 3 12 14 14 11 9 10 16 17 15 15 13 11 11 9 8 7 5 4 3 3 3 2 0 359 357 353 345 330 314 302 295 294 296 297 295 289 282 274 267 264 260 256 253 250 248
310 332 155 127 39 287 292 299 205 178 258 322 354 341 358 35 39 57 64 89 54 355 263 255 16 68 311 290 279 291 325 333 323 321 327 333 348 360 353 359 22 27 22 19 20 20 19 20 18 16 13 9 6 6 5 4 2 1 0 359 358 358 359 357 354 351 349 347 341 331 320 309 303 302 301 298 294 289 279 269 264 261 257 254 250 249
358 18 24 279 279 32 348 330 338 228 297 3 19 354 353 354 2 19 357 31 46 311 269 241 242 98 267 272 266 284 335 3 357 341 350 2 11 17 16 20 29 29 21 21 21 19 19 17 13 11 7 3 1 359 358 357 354 353 352 351 350 349 351 353 351 348 344 341 339 335 329 320 314 308 303 299 297 294 285 276 270 265 259 254 251 248
347 264 306 328 329 32 8 346 344 351 7 15 18 24 20 352 355 2 333 353 359 277 257 201 305 303 239 251 280 330 4 19 16 12 18 24 28 28 26 25 26 24 20 19 17 13 14 11 6 4 1 357 355 352 350 349 348 346 344 343 342 340 341 343 345 345 342 338 335 333 329 324 320 314 308 303 300 298 291 282 276 269 262 256 251 247
334 308 339 357 343 42 64 32 347 327 357 5 14 48 43 26 3 329 302 328 303 279 268 103 2 298 279 290 355 15 27 35 29 27 28 30 32 27 24 23 20 20 18 12 9 8 7 4 1 359 355 352 349 347 345 343 343 341 338 337 335 333 335 336 338 340 339 337 334 332 328 325 321 316 313 309 305 303 298 289 281 274 267 260 255 251
355 323 330 4 335 3 54 59 339 251 346 334 194 124 80 105 29 282 258 279 296 296 307 344 69 224 285 14 62 52 47 50 39 29 26 25 25 18 14 14 12 10 7 1 0 358 356 357 358 356 352 349 345 343 342 340 340 338 335 334 330 328 329 331 333 335 335 334 332 331 330 327 323 317 315 313 310 308 304 297 288 280 273 266 262 258
20 278 267 287 276 9 36 303 147 95 358 293 185 88 25 192 173 221 226 216 261 304 304 300 237 223 252 41 60 52 48 48 38 29 28 22 16 12 7 6 3 358 354 352 352 350 350 352 354 353 349 346 343 340 338 337 336 334 332 330 327 325 325 326 328 330 330 330 329 329 329 327 325 321 318 315 313 312 310 304 296 287 280 273 268 264
24 282 289 332 326 150 142 242 8 45 320 318 36 341 271 187 145 162 278 284 60 295 279 287 279 288 310 4 24 25 26 26 21 18 20 15 8 8 4 358 353 349 347 345 344 341 341 346 349 348 345 343 341 336 333 331 330 328 327 326 324 322 322 323 324 325 326 327 327 327 327 326 325 322 320 317 314 312 310 307 303 296 287 279 273 268
153 289 306 352 326 282 198 162 20 23 106 60 355 265 249 82 98 111 282 338 9 271 268 306 289 299 314 310 6 17 13 9 8 5 3 0 1 1 357 353 348 345 343 338 335 331 333 341 344 343 340 339 336 331 327 326 325 324 323 322 321 320 320 320 321 321 322 323 324 324 324 324 322 320 318 317 315 313 310 307 306 302 294 286 279 272
124 294 299 308 278 291 314 75 8 340 21 52 278 243 74 14 311 15 331 305 316 281 281 300 287 289 279 291 357 12 4 359 357 355 354 353 354 353 349 349 346 343 340 335 332 327 328 336 339 338 336 334 332 328 324 323 322 322 321 321 320 318 317 317 317 317 318 319 319 318 318 319 318 317 316 315 316 315 311 308 307 303 298 292 285 276
104 4 292 283 287 306 351 37 346 318 333 6 359 328 30 181 213 253 284 232 266 275 279 306 303 293 198 312 355 359 355 356 349 347 350 347 346 346 344 345 343 338 335 331 327 320 321 330 333 335 334 331 330 327 323 322 321 321 321 320 320 319 318 316 315 315 315 315 316 315 315 315 315 314 313 313 315 315 313 311 307 303 300 296 289 280
2 83 262 289 322 347 350 330 284 273 305 345 360 335 319 288 247 282 268 159 185 267 271 298 294 262 201 334 19 7 357 357 348 342 341 339 339 340 338 338 334 329 328 326 323 318 321 327 330 333 332 330 329 326 324 322 320 320 320 319 319 318 317 315 315 314 313 313 314 313 313 314 313 312 310 311 313 313 314 313 309 305 302 298 291 283
354 116 239 300 341 348 287 256 202 201 200 187 259 276 258 270 324 309 289 300 165 231 248 282 282 261 208 213 157 23 360 352 348 342 335 333 332 331 330 327 322 321 322 322 319 317 319 326 331 332 330 329 329 327 324 321 320 320 319 318 318 317 315 314 313 312 312 312 312 311 311 311 311 310 309 309 310 310 311 311 310 308 304 298 294 286
32 101 336 282 273 275 281 283 119 202 173 149 196 206 181 225 63 259 274 299 308 276 271 290 280 259 218 220 197 22 354 344 342 338 332 328 325 324 324 321 319 322 325 324 320 321 328 331 330 327 325 325 326 324 321 319 319 319 318 317 316 315 314 313 312 311 311 311 310 309 309 309 309 308 307 307 307 308 308 308 309 308 304 300 296 288
21 78 6 296 279 282 292 317 60 131 120 88 306 17 46 1 355 270 256 303 302 286 313 322 282 265 221 219 220 358 350 344 341 339 337 332 329 330 328 325 326 330 330 328 328 336 335 329 325 321 320 322 323 322 320 318 318 318 317 316 314 313 312 312 311 311 311 310 309 309 308 308 308 307 305 304 304 306 306 306 307 306 304 301 296 289
330 41 23 348 338 329 331 346 342 318 341 321 318 36 28 0 350 312 288 23 312 290 330 316 280 285 280 267 344 356 351 345 341 339 337 334 333 332 326 324 329 330 327 327 334 337 329 322 318 314 315 319 319 317 315 314 315 315 313 312 311 310 310 310 310 310 310 310 309 309 308 308 308 307 305 305 304 304 304 304 303 303 303 301 296 290
266 216 108 75 352 324 325 321 311 316 322 313 13 40 21 9 9 352 328 2 314 312 330 304 278 297 318 334 356 356 345 336 334 333 331 330 326 321 320 325 329 326 321 323 329 325 318 314 311 310 314 317 316 315 313 312 312 312 310 308 308 308 308 309 309 310 311 311 310 308 307 307 306 305 304 304 303 303 303 301 299 298 300 299 295 290
99 225 203 157 193 262 266 271 286 309 307 309 353 18 10 12 21 26 32 346 308 303 300 290 296 304 312 334 351 346 336 331 329 327 324 323 320 319 322 325 322 316 312 316 319 317 315 314 311 311 315 317 317 316 314 312 312 311 309 308 308 309 309 310 311 311 311 311 309 306 305 304 304 303 302 301 300 301 302 301 298 295 296 297 294 288
82 313 258 181 214 248 257 270 287 306 307 318 2 10 360 1 13 29 28 325 307 298 287 304 307 301 305 333 342 336 331 327 322 318 318 318 316 316 317 316 313 307 304 312 319 320 319 316 312 313 316 317 316 315 314 313 313 312 310 309 309 310 310 310 310 309 309 308 306 303 303 304 304 303 302 301 301 301 301 300 297 294 294 294 291 285
110 273 247 182 244 262 267 273 282 295 322 52 35 8 353 356 5 8 348 320 321 309 297 303 299 293 305 333 335 330 325 317 312 312 313 313 310 311 313 312 310 304 306 318 322 321 317 312 310 313 314 314 313 313 314 315 315 314 312 310 310 310 310 310 309 307 306 305 303 302 302 303 303 302 302 302 302 302 301 299 296 294 293 291 288 285
129 264 238 181 283 283 280 272 267 259 145 74 36 7 356 353 349 344 328 328 333 313 297 296 291 291 315 336 326 321 315 309 310 314 316 314 314 315 315 312 308 305 313 321 321 318 313 309 309 313 312 311 310 312 314 315 315 314 312 310 310 309 309 309 308 305 304 302 301 301 302 302 302 301 300 301 301 302 301 298 295 293 292 291 288 284
24 299 246 85 325 300 294 288 302 307 133 96 34 13 7 355 345 342 335 333 330 313 303 299 292 294 322 326 315 312 313 315 319 320 319 316 315 316 315 311 307 309 319 320 317 314 311 308 310 313 310 306 308 311 312 312 313 312 310 309 308 307 308 308 306 304 302 301 300 301 300 300 299 298 298 299 300 300 299 297 296 294 293 292 288 285
21 315 336 43 349 308 313 330 331 348 115 99 33 17 7 354 343 334 327 325 322 314 312 308 299 305 318 315 313 316 322 323 319 317 316 314 315 315 311 308 309 316 320 317 313 312 309 307 310 310 306 304 307 310 309 309 310 309 308 307 306 307 307 307 306 304 303 301 300 300 300 299 298 297 297 298 298 298 298 297 296 294 293 292 289 287
70 26 335 11 337 304 315 328 326 333 75 33 19 25 5 349 336 323 317 320 318 315 316 312 305 315 321 324 325 325 325 322 317 315 316 315 315 311 306 308 316 319 316 312 310 310 307 307 310 308 306 307 310 311 309 309 308 306 306 306 306 307 308 308 307 304 303 302 301 300 300 299 298 298 298 299 299 299 299 297 295 294 293 292 289 286
70 75 318 285 282 293 309 329 330 331 342 305 173 72 7 349 335 324 320 327 326 323 322 316 318 325 328 328 326 321 319 317 311 308 310 309 305 303 305 315 318 315 312 309 308 307 307 310 309 307 308 311 313 311 310 309 307 306 306 307 307 309 309 308 306 304 303 303 302 302 301 300 299 298 298 299 300 301 300 297 295 293 291 290 287 281
53 48 306 194 197 281 310 354 343 330 338 227 191 39 1 349 339 327 321 328 329 324 326 328 327 328 325 319 317 314 312 311 306 303 305 301 295 302 314 316 314 311 309 307 306 308 309 308 306 306 310 313 311 310 310 309 308 307 307 307 307 307 306 304 302 302 303 303 303 303 303 301 300 299 300 301 302 301 299 296 293 291 290 287 283 278
100 84 351 229 222 312 343 1 335 314 295 220 259 351 356 346 342 329 321 326 329 324 335 335 325 320 317 313 314 311 308 306 302 300 300 291 294 313 315 310 307 305 303 303 303 304 304 305 306 309 311 310 308 308 308 308 307 306 305 305 304 303 301 300 299 301 303 302 302 302 302 301 301 301 302 302 301 300 298 295 292 290 289 286 282 277
124 101 25 342 31 24 332 311 302 294 273 347 344 354 346 335 338 333 321 322 338 349 342 331 318 315 316 313 311 310 309 307 302 303 311 312 312 314 308 302 302 301 300 301 300 300 304 309 311 311 309 307 305 306 307 307 307 306 304 303 302 300 300 300 300 302 303 301 301 302 302 301 301 301 301 300 299 298 297 296 293 291 289 287 284 280
85 86 76 359 2 39 327 309 316 314 304 334 359 339 332 328 336 336 317 309 343 355 339 327 319 317 316 313 315 316 315 313 307 308 322 324 316 313 308 303 304 303 303 304 304 307 312 314 312 308 305 303 302 304 307 308 307 305 302 302 301 301 301 300 302 305 305 302 303 303 303 303 301 300 298 297 297 296 296 295 293 291 290 286 283 282
46 44 98 75 10 10 343 313 307 307 305 338 338 332 337 338 338 331 305 296 341 345 334 326 319 316 316 315 316 318 318 316 311 312 321 320 313 311 308 306 306 305 306 309 313 315 315 313 311 308 306 304 303 307 310 310 309 307 303 303 303 302 302 302 304 307 306 304 304 304 303 303 301 299 298 297 296 296 296 295 293 291 290 286 281 279
30 12 49 56 2 329 324 298 286 279 265 305 330 341 346 341 337 330 311 314 338 335 329 323 316 314 315 313 313 317 318 314 309 309 313 313 308 306 305 305 307 308 310 314 317 316 313 311 310 308 307 307 308 311 313 313 311 309 305 305 305 303 303 305 307 308 305 303 304 303 303 303 301 299 299 297 297 297 296 294 293 291 289 286 280 275
20 2 34 55 332 318 313 298 299 288 248 320 339 348 350 340 337 334 318 318 329 326 320 316 312 311 311 310 313 316 312 305 300 300 304 307 308 307 307 308 310 313 314 315 314 314 312 309 308 306 306 308 311 312 313 313 311 309 307 307 305 303 304 307 308 307 305 302 302 303 303 302 300 299 299 298 298 298 297 295 294 291 288 286 282 278
9 342 337 347 325 319 313 305 304 289 339 357 344 344 353 346 333 321 310 310 317 316 311 310 309 307 308 312 313 311 306 303 300 299 301 306 308 308 310 313 316 317 317 316 317 318 317 314 313 311 311 313 314 314 314 313 310 309 308 307 306 306 308 309 309 307 305 303 302 303 303 302 302 301 300 301 301 299 299 298 295 293 295 298 298 293
343 322 331 331 321 314 313 322 315 299 339 358 347 341 355 343 311 300 305 306 307 307 307 307 306 306 310 312 311 309 307 305 303 304 305 305 307 308 311 315 318 318 318 319 321 322 321 317 315 315 314 315 316 315 316 314 311 309 309 307 308 310 311 310 310 308 305 302 301 303 304 304 304 304 303 303 303 302 301 299 299 305 314 315 310 301
155 55 334 303 330 29 320 312 303 294 311 342 346 327 318 308 297 301 306 305 304 306 306 306 308 310 310 309 309 309 308 307 307 308 307 308 310 310 311 315 316 316 318 321 322 322 320 316 314 313 312 311 313 316 317 314 310 308 308 309 311 312 311 311 311 309 304 301 301 304 305 305 305 305 304 305 304 303 301 300 306 321 324 319 313 302
159 98 287 267 270 289 263 262 272 281 298 325 329 312 303 299 300 303 302 300 302 304 303 307 312 312 309 307 308 308 308 309 309 308 309 311 310 308 310 315 317 317 319 321 321 320 318 315 315 314 311 310 314 318 317 314 309 305 306 311 313 311 310 311 312 309 304 303 304 306 306 305 304 304 305 305 305 304 302 305 320 329 323 320 316 301
242 51 344 251 286 290 272 269 281 294 313 318 313 305 300 299 303 303 300 300 302 302 302 305 309 310 308 306 308 309 310 310 309 310 313 311 306 308 313 316 317 318 320 320 321 320 318 317 318 316 313 313 316 317 315 312 308 302 304 311 313 309 307 310 311 308 305 305 307 308 307 305 303 304 304 305 308 307 304 311 331 331 322 321 317 296
270 303 286 260 312 312 305 304 309 315 315 307 301 296 296 302 309 312 311 310 308 308 308 304 302 305 307 310 312 311 309 310 312 315 317 313 309 313 316 316 318 319 319 320 320 320 319 319 320 319 318 317 317 317 315 311 306 302 307 313 312 306 305 309 311 308 305 305 307 308 308 305 303 304 304 307 311 310 308 320 337 332 321 321 318 293
292 312 323 318 312 301 295 304 313 314 309 305 307 310 311 317 321 320 317 315 313 312 312 309 307 307 310 314 316 312 311 315 320 320 317 313 312 315 318 322 324 323 322 323 322 321 322 323 322 320 319 317 317 319 317 313 311 311 313 314 310 305 304 309 311 307 304 305 307 308 307 305 304 304 305 308 313 312 314 332 342 332 322 326 323 291
296 324 328 318 312 297 296 315 324 322 320 325 326 322 320 321 321 319 318 317 317 317 315 315 317 317 316 316 315 314 316 322 323 320 316 314 317 324 328 328 326 325 325 324 323 324 325 324 320 319 318 317 318 320 319 318 318 317 315 313 311 307 307 311 311 306 303 305 308 307 307 306 305 305 307 310 312 313 319 337 344 333 324 333 336 308
326 336 329 323 326 320 316 324 326 319 317 321 321 317 316 317 318 317 317 317 318 316 315 317 319 319 319 320 320 320 322 323 320 317 316 320 327 330 329 327 325 325 324 323 321 321 322 322 322 321 320 321 322 320 318 318 317 315 314 314 313 312 311 310 308 305 303 305 307 307 308 307 307 309 311 311 312 313 320 334 347 348 332 330 340 333
333 325 319 316 313 307 306 311 313 306 300 303 307 311 311 312 313 313 312 311 311 312 315 318 318 319 321 323 326 329 325 318 317 320 326 331 331 327 325 325 324 324 323 322 320 320 325 329 328 326 324 323 321 319 317 317 316 315 316 316 315 314 312 310 307 303 303 305 306 307 308 308 309 311 313 313 312 314 322 334 347 358 354 335 338 345